Other Public Products
Issued by NWS Charleston, SC

Current Version | Previous Version | Graphics & Text | Print | Product List | Glossary On
Versions: 1 2 3 4 5 6 7 8 9 10 11 12 13 14 15 16 17 18 19 20 21 22 23 24 25 26 27 28 29 30 31 32 33 34 35 36 37 38 39 40 41 42 43 44 45 46 47 48 49 50
689
FPUS82 KCHS 261627
OPUCHS

TEST...KCHS/KSAV Gateway Observations...TEST
National Weather Service Charleston SC
1100 AM EST SUN FEB 26 2017

NOTE: "fair" indicates few or no clouds below 12,000 feet with no
significant weather and/or obstructions to visibility.

SCZ050-WAZ558-NCZ071-TXZ119-213-PAZ071-DCZ001-FLZ074-172-MI076-
NYZ176-178-MAZ016-IL014-TNZ027-NJZ106-GAZ044-MD014-261700-
...Gateway Observations for Charleston International...

CITY           SKY/WX    TMP DP  RH WIND       PRES   REMARKS
Chas Airport   SUNNY     58  24  27 VRB5      30.21F
Seattle        LGT RAIN  36  34  92 E10       29.69S WCI  28
Charlotte      SUNNY     47  15  27 NW8       30.22S
Dallas DFW     PTSUNNY   56  36  47 S14       29.98R
Dallas Love    PTSUNNY   55  37  50 S14       30.00S
Philladelphia  PTSUNNY   38  16  40 W20G32    30.10R WCI  28
Wash National  MOSUNNY   43  19  38 NW15      30.16S
Baltimore      MOSUNNY   40  18  41 W13G22    30.13S WCI  32
Miami          MOSUNNY   78  62  57 VRB3      30.13R
Detroit        MOSUNNY   33  18  53 S15       30.10F WCI  23
Newark         PTSUNNY   41  16  36 W21G32    30.01R
Laguardia      MOSUNNY   41  17  38 NW18G29   29.99R
J F K          PTSUNNY   41  17  38 NW21G32   30.01R
Boston Logan   MOSUNNY   41  21  44 W21G32    29.82R
Ft. Lauderdale MOSUNNY   80  66  62 NE10      30.12R
Chicago O`Hare PTSUNNY   35  16  45 S22       29.97F WCI  23
Chicago Midway PTSUNNY   34  15  46 S18G26    30.00F WCI  23
Houston Bush   MOSUNNY   67  54  63 SE13G22   30.05S
Houston Hobby  MOSUNNY   69  56  62 SE17G24   30.05R
Nashville      MOSUNNY   44  19  36 S13       30.27R
Atlanta        SUNNY     49  19  30 CALM      30.23R

$$

GAZ044-118-TXZ119-213-NCZ071-DCZ001-MDZ014-506-PAZ021-071-NJZ106-
NYZ176-178-MAZ106-OHZ011-021-055-MIZ076-KYZ091-ILZ014-INZ047-
MNZ060-ONZ431-261700-
...Gateway Observations for Savannah International...

CITY           SKY/WX    TMP DP  RH WIND       PRES   REMARKS
Savannah Arpt  SUNNY     56  22  26 VRB3      30.24S
Atlanta        SUNNY     49  19  30 CALM      30.23R
Charlotte      SUNNY     47  15  27 NW8       30.22S
Dallas DFW     PTSUNNY   56  36  47 S14       29.98R
Houston Bush   MOSUNNY   67  54  63 SE13G22   30.05S
Wash National  MOSUNNY   43  19  38 NW15      30.16S
Wash Dulles    MOSUNNY   40  16  37 W16G25    30.14S WCI  31
Baltimore      MOSUNNY   40  18  41 W13G22    30.13S WCI  32
Philadelphia   PTSUNNY   38  16  40 W20G32    30.10R WCI  28
Newark         PTSUNNY   41  16  36 W21G32    30.01R
Laguardia      MOSUNNY   41  17  38 NW18G29   29.99R
J F K          PTSUNNY   41  17  38 NW21G32   30.01R
Boston         MOSUNNY   41  21  44 W21G32    29.82R
Pittsburg      FLURRIES  30  20  66 W16       30.14R WCI  19
Akron          PTSUNNY   29  14  53 W14       30.15R WCI  18
Cleveland      MOSUNNY   31  16  54 S10       30.17F WCI  22
Cincinnati     SUNNY     34  16  47 SW7       30.22S WCI  28
Columbus       SUNNY     33  18  55 SW10      30.21R WCI  25
Detroit        MOSUNNY   33  18  53 S15       30.10F WCI  23
Chicago O`Hare PTSUNNY   35  16  45 S22       29.97F WCI  23
Minneapolis    MOSUNNY   30  20  66 SW14      29.78R WCI  19
Indianapolis   MOSUNNY   34  17  50 S13       30.17F WCI  25
Toronto Canada PTSUNNY   32  14  47 W16G24    30.02S WCI  21

$$




USA.gov is the U.S. government's official web portal to all federal, state and local government web resources and services.